Regional Weather Roundup
Issued by NWS

Home | Current Version | Previous Version | Text Only | Print | Product List | Glossary Off
Versions: 1 2 3 4 5 6 7 8 9 10 11 12 13 14 15 16 17 18 19 20 21 22 23 24 25 26 27

000
ASUS45 KBOI 271510
RWRID

IDAHO REGIONAL WEATHER ROUNDUP
NATIONAL WEATHER SERVICE BOISE ID
900 AM MDT SAT AUG 27 2016

NOTE: "FAIR" INDICATES FEW OR NO CLOUDS BELOW 12000 FEET
WITH NO SIGNIFICANT WEATHER AND/OR OBSTRUCTIONS TO VISIBILITY

IDZ012-014-271600-
SOUTHWEST IDAHO


CITY           SKY/WX    TMP DP  RH WIND       PRES   REMARKS
BOISE          SUNNY     66  33  29 SE7       29.95S
CALDWELL       SUNNY     60  44  55 E3        29.95R
MOUNTAIN HOME  SUNNY     61  35  38 E10       29.97R
$$

IDZ016-017-271600-
SOUTHCENTRAL IDAHO


CITY           SKY/WX    TMP DP  RH WIND       PRES   REMARKS
BURLEY         SUNNY     57  44  62 CALM      30.03S
JEROME         SUNNY     62  35  36 E8        30.03R
TWIN FALLS     SUNNY     62  34  35 E3        30.04R
$$

IDZ019>023-271600-
SOUTHEAST IDAHO


CITY           SKY/WX    TMP DP  RH WIND       PRES   REMARKS
IDAHO FALLS    SUNNY     57  34  41 S6        30.08R
POCATELLO      SUNNY     57  32  38 CALM      30.07S
REXBURG        SUNNY     51  35  54 SE3       30.09R
$$

IDZ006-010-011-018-031-032-271600-
CENTRAL IDAHO MOUNTAINS


CITY           SKY/WX    TMP DP  RH WIND       PRES   REMARKS
MCCALL         MOSUNNY   51  37  58 CALM      30.05R
HAILEY         MOSUNNY   52  34  50 NW12      30.10S SMOKE
STANLEY          N/A     40  29  64 CALM      30.17S
SALMON         MOSUNNY   46  37  71 CALM      30.05S
CHALLIS        SUNNY     53  32  44 CALM      30.07S
$$

IDZ002-004-006-007-026-271600-
NORTHERN IDAHO


CITY           SKY/WX    TMP DP  RH WIND       PRES   REMARKS
LEWISTON       MOSUNNY   67  41  38 NE6       29.82R
LOWELL           N/A     53  45  74 N3        29.93F
COEUR D`ALENE  MOSUNNY   66  45  45 S8        29.77R
MULLAN PASS    PTSUNNY   56  34  43 CALM      29.97S
$$




USA.gov is the U.S. government's official web portal to all federal, state and local government web resources and services.